M I D A S
Marine Information and Data Acquisition System
Tripno 2035 of the Zeeleeuw from 2011-01-20 09:15:52 to 2011-01-20 16:41:53
Back to CruiseResearch ActivitiesStationsMapUnderway DataData graphs

EquipmentUnitsComments
TimeDGPSUTC
LatitudeDGPSDM.mWGS84
LongitudeDGPSDM.mWGS84
SpeedMeteo Stationm/sRelative wind speed
DirectionMeteo StationdegRelative wind direction
TemperatureMeteo Stationdeg CelciusAir temperature
PressureMeteo StationPaAtmospheric pressure
HumidityMeteo Station%Relative humidity
Missing or incorrect values are displayed as -999
Metereological data collected by the RV Zeeleeuw from 2011-01-20 09:16:14 to 2011-01-20 16:46:21
                                                                                    Next 1000 lines
Time Latitude Longitude Speed Direction Temperature Pressure Humidity
2011-01-20 09:16:24 51°13.661 2°55.957 0.1 263 5.3 103270 38
2011-01-20 09:16:30 51°13.662 2°55.953 0.1 307 5.3 103270 38
2011-01-20 09:16:34 51°13.663 2°55.95 0.1 255 5.3 103270 39
2011-01-20 09:16:40 51°13.664 2°55.945 -999 287 5.3 103270 39
2011-01-20 09:16:46 51°13.666 2°55.939 3.4 260 5.3 103270 39
2011-01-20 09:16:52 51°13.667 2°55.932 3.5 305 5.3 103270 39
2011-01-20 09:16:58 51°13.669 2°55.924 4.4 258 5.3 103270 39
2011-01-20 09:17:02 51°13.67 2°55.918 2.9 306 5.3 103270 39
2011-01-20 09:17:08 51°13.672 2°55.909 1.7 264 5.3 103260 40
2011-01-20 09:17:14 51°13.674 2°55.9 1.4 309 5.3 103260 40
2011-01-20 09:17:18 51°13.675 2°55.893 4.5 259 5.3 103270 38
2011-01-20 09:17:24 51°13.677 2°55.883 0.6 53 5.3 103270 38
2011-01-20 09:17:28 51°13.679 2°55.875 3.7 265 5.3 103270 39
2011-01-20 09:17:34 51°13.68 2°55.865 4 308 5.3 103270 39
2011-01-20 09:17:38 51°13.682 2°55.858 4 270 5.3 103270 39
2011-01-20 09:17:44 51°13.683 2°55.847 5.1 305 5.3 103270 39
2011-01-20 09:17:48 51°13.684 2°55.841 5.8 253 5.3 103260 39
2011-01-20 09:17:54 51°13.686 2°55.831 3.8 302 5.3 103260 39
2011-01-20 09:17:58 51°13.687 2°55.825 5.2 259 5.3 103280 39
2011-01-20 09:18:04 51°13.688 2°55.816 5.4 309 5.3 103280 39
2011-01-20 09:18:08 51°13.689 2°55.809 4.3 20 5.3 103270 39
2011-01-20 09:18:14 51°13.69 2°55.8 3.5 308 5.3 103270 39
2011-01-20 09:18:18 51°13.69 2°55.794 2.6 253 5.3 103270 37
2011-01-20 09:18:24 51°13.691 2°55.786 1.4 305 5.3 103270 37
2011-01-20 09:18:29 51°13.691 2°55.779 1.2 20 5.3 103260 40
2011-01-20 09:18:34 51°13.691 2°55.772 0.4 306 5.3 103260 40
2011-01-20 09:18:38 51°13.691 2°55.766 1.6 262 5.3 103270 39
2011-01-20 09:18:44 51°13.691 2°55.758 3.4 288 5.3 103270 39
2011-01-20 09:18:49 51°13.691 2°55.752 2.8 257 5.3 103270 38
2011-01-20 09:18:54 51°13.691 2°55.746 3.8 305 5.3 103270 38
2011-01-20 09:18:58 51°13.691 2°55.743 5.2 257 5.3 103270 39
2011-01-20 09:19:04 51°13.691 2°55.74 4 310 5.3 103270 39
2011-01-20 09:19:08 51°13.691 2°55.738 4.5 19 5.3 103270 38
2011-01-20 09:19:14 51°13.691 2°55.737 3.9 304 5.3 103270 38
2011-01-20 09:19:18 51°13.691 2°55.737 4.2 23 5.3 103270 40
2011-01-20 09:19:24 51°13.691 2°55.736 3.5 304 5.3 103270 40
2011-01-20 09:19:29 51°13.692 2°55.736 3.6 26 5.4 103270 40
2011-01-20 09:19:34 51°13.692 2°55.737 1.8 310 5.4 103270 40
2011-01-20 09:19:38 51°13.693 2°55.737 2.6 25 5.4 103270 38
2011-01-20 09:19:44 51°13.694 2°55.737 2 303 5.4 103270 38
2011-01-20 09:19:49 51°13.694 2°55.738 2.4 18 5.4 103270 38
2011-01-20 09:19:54 51°13.695 2°55.739 0.5 303 5.4 103270 38
2011-01-20 09:19:59 51°13.696 2°55.739 1.3 322 5.3 103260 39
2011-01-20 09:20:04 51°13.698 2°55.74 4.4 319 5.3 103260 39
2011-01-20 09:20:08 51°13.699 2°55.74 3.9 320 5.3 103260 39
2011-01-20 09:20:14 51°13.7 2°55.741 3.4 305 5.3 103260 39
2011-01-20 09:20:18 51°13.701 2°55.74 2.2 323 5.3 103260 40
2011-01-20 09:20:24 51°13.7 2°55.739 1.4 304 5.3 103260 40
2011-01-20 09:20:29 51°13.699 2°55.737 1.3 325 5.4 103260 39
2011-01-20 09:20:34 51°13.698 2°55.735 2.1 304 5.4 103260 39
2011-01-20 09:20:38 51°13.697 2°55.733 1.5 321 5.3 103260 38
2011-01-20 09:20:44 51°13.694 2°55.731 3.4 285 5.3 103260 38
2011-01-20 09:20:49 51°13.692 2°55.728 3.2 318 5.3 103260 39
2011-01-20 09:20:54 51°13.69 2°55.727 1.5 302 5.3 103260 39
2011-01-20 09:20:58 51°13.689 2°55.725 1.8 331 5.3 103260 38
2011-01-20 09:21:03 51°13.688 2°55.725 1.6 338 5.3 103260 38
2011-01-20 09:21:09 51°13.689 2°55.723 2.5 346 5.4 103270 39
2011-01-20 09:21:14 51°13.69 2°55.723 2.7 341 5.4 103270 39
2011-01-20 09:21:18 51°13.691 2°55.722 4.1 345 5.3 103270 38
2011-01-20 09:21:23 51°13.693 2°55.721 4.7 353 5.3 103270 38
2011-01-20 09:21:28 51°13.696 2°55.719 4.4 349 5.3 103260 38
2011-01-20 09:21:34 51°13.701 2°55.716 3.9 340 5.3 103260 38
2011-01-20 09:21:38 51°13.705 2°55.713 4.3 353 5.3 103260 39
2011-01-20 09:21:43 51°13.711 2°55.709 4 346 5.3 103260 39
2011-01-20 09:21:48 51°13.717 2°55.704 4.5 343 5.3 103260 39
2011-01-20 09:21:54 51°13.726 2°55.698 5.6 349 5.3 103260 39
2011-01-20 09:21:58 51°13.733 2°55.693 4.9 341 5.3 103260 39
2011-01-20 09:22:03 51°13.741 2°55.687 5 339 5.3 103260 39
2011-01-20 09:22:08 51°13.75 2°55.681 6.2 345 5.3 103260 38
2011-01-20 09:22:13 51°13.76 2°55.674 6.9 347 5.3 103260 38
2011-01-20 09:22:18 51°13.771 2°55.667 7.1 344 5.3 103260 38
2011-01-20 09:22:22 51°13.779 2°55.662 7.7 332 5.3 103260 38
2011-01-20 09:22:27 51°13.79 2°55.655 6.7 344 5.3 103260 38
2011-01-20 09:22:31 51°13.799 2°55.649 7.4 345 5.3 103260 38
2011-01-20 09:22:36 51°13.81 2°55.641 9.5 349 5.3 103260 39
2011-01-20 09:22:42 51°13.824 2°55.631 9.7 282 5.3 103260 39
2011-01-20 09:22:46 51°13.833 2°55.625 9.6 345 5.3 103260 38
2011-01-20 09:22:50 51°13.842 2°55.618 8.2 343 5.3 103260 38
2011-01-20 09:22:55 51°13.854 2°55.61 8 347 5.3 103260 39
2011-01-20 09:23:00 51°13.865 2°55.602 8.6 348 5.3 103260 39
2011-01-20 09:23:05 51°13.877 2°55.594 7.4 346 5.3 103250 38
2011-01-20 09:23:10 51°13.889 2°55.585 8.4 345 5.3 103250 38
2011-01-20 09:23:16 51°13.904 2°55.576 8.9 346 5.3 103250 39
2011-01-20 09:23:21 51°13.916 2°55.567 9.9 339 5.3 103250 39
2011-01-20 09:23:27 51°13.93 2°55.557 8.7 344 5.3 103250 38
2011-01-20 09:23:33 51°13.945 2°55.547 6.6 347 5.3 103250 38
2011-01-20 09:23:38 51°13.957 2°55.539 4.4 350 5.3 103250 37
2011-01-20 09:23:43 51°13.969 2°55.53 7.5 349 5.3 103250 37
2011-01-20 09:23:48 51°13.981 2°55.521 5.9 340 5.3 103250 39
2011-01-20 09:23:54 51°13.996 2°55.51 8.8 348 5.3 103250 39
2011-01-20 09:23:58 51°14.006 2°55.503 8.3 348 5.3 103260 40
2011-01-20 09:24:03 51°14.018 2°55.495 8.9 342 5.3 103260 40
2011-01-20 09:24:08 51°14.03 2°55.486 9.4 349 5.3 103250 40
2011-01-20 09:24:14 51°14.045 2°55.476 7.9 346 5.3 103250 40
2011-01-20 09:24:18 51°14.054 2°55.469 7.5 340 5.3 103260 40
2011-01-20 09:24:24 51°14.069 2°55.458 8.7 345 5.3 103260 40
2011-01-20 09:24:29 51°14.081 2°55.449 8.6 346 5.3 103250 40
2011-01-20 09:24:34 51°14.093 2°55.44 10.2 349 5.3 103250 40
2011-01-20 09:24:38 51°14.103 2°55.433 6.6 347 5.3 103250 40
2011-01-20 09:24:44 51°14.118 2°55.422 6.5 345 5.3 103250 40
2011-01-20 09:24:48 51°14.128 2°55.414 9 345 5.3 103260 40
2011-01-20 09:24:53 51°14.14 2°55.404 9.2 344 5.3 103260 40
2011-01-20 09:24:58 51°14.152 2°55.395 9 346 5.3 103260 39
2011-01-20 09:25:02 51°14.161 2°55.386 7.8 346 5.3 103260 39
2011-01-20 09:25:07 51°14.173 2°55.377 8.2 342 5.3 103260 40
2011-01-20 09:25:13 51°14.188 2°55.364 7.3 344 5.3 103260 40
2011-01-20 09:25:18 51°14.199 2°55.353 9.6 348 5.3 103250 39
2011-01-20 09:25:23 51°14.211 2°55.342 9.5 349 5.3 103250 39
2011-01-20 09:25:29 51°14.226 2°55.329 8.6 346 5.3 103260 40
2011-01-20 09:25:34 51°14.237 2°55.318 9.9 351 5.3 103260 40
2011-01-20 09:25:38 51°14.247 2°55.308 8.3 352 5.3 103260 40
2011-01-20 09:25:43 51°14.259 2°55.297 8.2 351 5.3 103260 40
2011-01-20 09:25:48 51°14.27 2°55.285 10 352 5.3 103250 40
2011-01-20 09:25:53 51°14.282 2°55.273 8.4 352 5.3 103250 40
2011-01-20 09:25:58 51°14.294 2°55.261 8.8 347 5.3 103250 41
2011-01-20 09:26:02 51°14.303 2°55.252 9.6 349 5.3 103250 41
2011-01-20 09:26:07 51°14.315 2°55.24 7.2 349 5.3 103250 40
2011-01-20 09:26:12 51°14.327 2°55.228 8.3 349 5.3 103250 40
2011-01-20 09:26:17 51°14.34 2°55.216 8.6 353 5.3 103240 40
2011-01-20 09:26:22 51°14.352 2°55.203 9.2 352 5.3 103240 40
2011-01-20 09:26:26 51°14.362 2°55.193 8.5 353 5.3 103250 41
2011-01-20 09:26:32 51°14.377 2°55.178 7.8 352 5.3 103250 41
2011-01-20 09:26:37 51°14.39 2°55.165 9.6 354 5.3 103240 41
2011-01-20 09:26:42 51°14.402 2°55.151 9.4 354 5.3 103240 41
2011-01-20 09:26:46 51°14.412 2°55.139 8.1 355 5.3 103240 40
2011-01-20 09:26:51 51°14.424 2°55.125 7.5 351 5.3 103240 40
2011-01-20 09:26:56 51°14.437 2°55.111 8.7 347 5.3 103240 41
2011-01-20 09:27:01 51°14.45 2°55.098 8.7 348 5.3 103240 41
2011-01-20 09:27:06 51°14.464 2°55.085 9.2 351 5.3 103250 41
2011-01-20 09:27:11 51°14.478 2°55.072 12.2 352 5.3 103250 41
2011-01-20 09:27:16 51°14.492 2°55.058 10.6 352 5.3 103260 41
2011-01-20 09:27:22 51°14.508 2°55.041 8.8 350 5.3 103260 41
2011-01-20 09:27:26 51°14.519 2°55.028 9.2 354 5.3 103250 41
2011-01-20 09:27:30 51°14.53 2°55.016 10 348 5.3 103250 41
2011-01-20 09:27:35 51°14.544 2°55 9.4 350 5.3 103250 40
2011-01-20 09:27:40 51°14.558 2°54.984 8.9 350 5.3 103250 40
2011-01-20 09:27:45 51°14.572 2°54.968 10.2 350 5.3 103240 40
2011-01-20 09:27:50 51°14.586 2°54.952 9.8 349 5.3 103240 40
2011-01-20 09:27:55 51°14.601 2°54.936 10 347 5.3 103250 41
2011-01-20 09:28:00 51°14.616 2°54.921 9 350 5.3 103250 41
2011-01-20 09:28:05 51°14.631 2°54.906 8.5 347 5.3 103240 41
2011-01-20 09:28:10 51°14.646 2°54.893 9.4 344 5.3 103240 41
2011-01-20 09:28:15 51°14.661 2°54.881 10 346 5.3 103250 40
2011-01-20 09:28:20 51°14.677 2°54.869 11.3 348 5.3 103250 40
2011-01-20 09:28:25 51°14.693 2°54.857 11 348 5.3 103250 40
2011-01-20 09:28:30 51°14.708 2°54.844 11.1 349 5.3 103250 40
2011-01-20 09:28:34 51°14.721 2°54.835 12.6 349 5.3 103260 42
2011-01-20 09:28:40 51°14.74 2°54.821 10 346 5.3 103260 42
2011-01-20 09:28:45 51°14.756 2°54.81 9.6 346 5.3 103250 41
2011-01-20 09:28:50 51°14.772 2°54.799 10 344 5.3 103250 41
2011-01-20 09:28:55 51°14.788 2°54.789 12.8 344 5.3 103250 39
2011-01-20 09:29:00 51°14.804 2°54.78 9.3 344 5.3 103250 39
2011-01-20 09:29:05 51°14.82 2°54.77 10.1 343 5.3 103250 42
2011-01-20 09:29:10 51°14.836 2°54.762 13.2 340 5.3 103250 42
2011-01-20 09:29:14 51°14.849 2°54.756 12.8 340 5.4 103240 42
2011-01-20 09:29:20 51°14.869 2°54.75 10.4 340 5.4 103240 42
2011-01-20 09:29:25 51°14.886 2°54.746 10.7 341 5.4 103250 42
2011-01-20 09:29:30 51°14.902 2°54.743 13.3 340 5.4 103250 42
2011-01-20 09:29:35 51°14.919 2°54.741 13.5 340 5.4 103250 42
2011-01-20 09:29:40 51°14.936 2°54.739 12.6 283 5.4 103250 42
2011-01-20 09:29:45 51°14.952 2°54.738 12.6 341 5.4 103240 41
2011-01-20 09:29:50 51°14.969 2°54.735 12.3 341 5.4 103240 41
2011-01-20 09:29:54 51°14.982 2°54.732 13.5 340 5.3 103250 42
2011-01-20 09:30:00 51°15.002 2°54.727 9.4 343 5.3 103250 42
2011-01-20 09:30:05 51°15.018 2°54.72 13.3 345 5.4 103250 41
2011-01-20 09:30:10 51°15.034 2°54.713 14.3 346 5.4 103250 41
2011-01-20 09:30:14 51°15.047 2°54.705 12.5 346 5.4 103240 41
2011-01-20 09:30:20 51°15.066 2°54.694 12.8 343 5.4 103240 41
2011-01-20 09:30:25 51°15.081 2°54.684 13.2 345 5.4 103250 41
2011-01-20 09:30:30 51°15.097 2°54.673 13.5 344 5.4 103250 41
2011-01-20 09:30:35 51°15.112 2°54.661 12.8 348 5.4 103240 42
2011-01-20 09:30:40 51°15.127 2°54.649 13.2 350 5.4 103240 42
2011-01-20 09:30:45 51°15.142 2°54.637 12.4 349 5.4 103240 42
2011-01-20 09:30:50 51°15.157 2°54.625 13.7 351 5.4 103240 42
2011-01-20 09:30:55 51°15.173 2°54.612 12 349 5.4 103240 42
2011-01-20 09:31:00 51°15.188 2°54.6 13.7 346 5.4 103240 42
2011-01-20 09:31:05 51°15.203 2°54.588 13.9 346 5.4 103240 42
2011-01-20 09:31:10 51°15.218 2°54.577 13.9 347 5.4 103240 42
2011-01-20 09:31:15 51°15.234 2°54.567 11.5 345 5.4 103250 42
2011-01-20 09:31:20 51°15.25 2°54.556 9.7 348 5.4 103250 42
2011-01-20 09:31:25 51°15.265 2°54.544 9.7 346 5.4 103240 41
2011-01-20 09:31:30 51°15.281 2°54.532 9 348 5.4 103240 41
2011-01-20 09:31:34 51°15.293 2°54.522 9.5 346 5.4 103250 40
2011-01-20 09:31:40 51°15.311 2°54.505 12.3 348 5.4 103250 40
2011-01-20 09:31:45 51°15.326 2°54.49 12.1 347 5.4 103250 42
2011-01-20 09:31:50 51°15.34 2°54.474 9.2 348 5.4 103250 42
2011-01-20 09:31:55 51°15.354 2°54.457 12.5 349 5.4 103250 41
2011-01-20 09:32:00 51°15.368 2°54.44 13.8 349 5.4 103250 41
2011-01-20 09:32:05 51°15.382 2°54.423 9.3 350 5.4 103250 41
2011-01-20 09:32:10 51°15.396 2°54.406 8.6 347 5.4 103250 41
2011-01-20 09:32:14 51°15.407 2°54.393 10.1 348 5.4 103250 41
2011-01-20 09:32:20 51°15.425 2°54.374 14.8 346 5.4 103250 41
2011-01-20 09:32:25 51°15.439 2°54.358 9.8 346 5.4 103250 42
2011-01-20 09:32:30 51°15.454 2°54.343 14.6 346 5.4 103250 42
2011-01-20 09:32:35 51°15.468 2°54.328 14.1 347 5.4 103240 43
2011-01-20 09:32:40 51°15.483 2°54.312 9.5 348 5.4 103240 43
2011-01-20 09:32:45 51°15.497 2°54.296 13.5 350 5.4 103240 43
2011-01-20 09:32:50 51°15.511 2°54.281 5.7 349 5.4 103240 43
2011-01-20 09:32:55 51°15.526 2°54.265 12.1 347 5.4 103250 42
2011-01-20 09:33:00 51°15.54 2°54.249 9.3 346 5.4 103250 42
2011-01-20 09:33:05 51°15.555 2°54.233 13 345 5.4 103240 43
2011-01-20 09:33:10 51°15.569 2°54.217 9.7 346 5.4 103240 43
2011-01-20 09:33:15 51°15.583 2°54.202 9.7 344 5.3 103240 43
2011-01-20 09:33:20 51°15.597 2°54.186 13.2 348 5.3 103240 43
2011-01-20 09:33:25 51°15.612 2°54.171 13.1 349 5.4 103250 43
2011-01-20 09:33:30 51°15.626 2°54.155 13 347 5.4 103250 43
2011-01-20 09:33:34 51°15.637 2°54.142 13.4 347 5.4 103240 42
2011-01-20 09:33:40 51°15.654 2°54.123 13.5 281 5.4 103240 42
2011-01-20 09:33:45 51°15.669 2°54.108 9.7 348 5.4 103250 42
2011-01-20 09:33:50 51°15.683 2°54.092 12.4 347 5.4 103250 42
2011-01-20 09:33:55 51°15.698 2°54.077 12.4 344 5.4 103250 43
2011-01-20 09:34:00 51°15.712 2°54.061 12.9 349 5.4 103250 43
2011-01-20 09:34:05 51°15.726 2°54.046 9.8 348 5.3 103240 42
2011-01-20 09:34:10 51°15.74 2°54.03 9.3 350 5.3 103240 42
2011-01-20 09:34:15 51°15.755 2°54.015 12.7 348 5.4 103240 41
2011-01-20 09:34:20 51°15.769 2°53.998 11.9 346 5.4 103240 41
2011-01-20 09:34:25 51°15.783 2°53.983 8.9 347 5.4 103250 42
2011-01-20 09:34:30 51°15.798 2°53.967 9.7 347 5.4 103250 42
2011-01-20 09:34:35 51°15.812 2°53.952 9.9 347 5.4 103240 42
2011-01-20 09:34:40 51°15.827 2°53.936 12.8 349 5.4 103240 42
2011-01-20 09:34:45 51°15.841 2°53.92 9.5 347 5.4 103250 43
2011-01-20 09:34:50 51°15.855 2°53.904 13.2 348 5.4 103250 43
2011-01-20 09:34:54 51°15.866 2°53.892 9.5 347 5.4 103250 42
2011-01-20 09:35:00 51°15.884 2°53.873 11.2 346 5.4 103250 42
2011-01-20 09:35:05 51°15.898 2°53.858 14.8 348 5.4 103240 43
2011-01-20 09:35:10 51°15.912 2°53.842 13.5 347 5.4 103240 43
2011-01-20 09:35:15 51°15.927 2°53.827 14.2 347 5.4 103250 42
2011-01-20 09:35:20 51°15.941 2°53.811 13.3 347 5.4 103250 42
2011-01-20 09:35:25 51°15.955 2°53.795 10.1 347 5.4 103240 42
2011-01-20 09:35:30 51°15.969 2°53.78 12.7 347 5.4 103240 42
2011-01-20 09:35:34 51°15.98 2°53.767 10.4 348 5.4 103240 43
2011-01-20 09:35:40 51°15.997 2°53.749 9.7 280 5.4 103240 43
2011-01-20 09:35:45 51°16.012 2°53.733 10.1 347 5.3 103240 42
2011-01-20 09:35:50 51°16.026 2°53.717 13.9 348 5.3 103240 42
2011-01-20 09:35:55 51°16.04 2°53.702 13.5 349 5.3 103240 42
2011-01-20 09:36:00 51°16.054 2°53.685 13.8 350 5.3 103240 42
2011-01-20 09:36:05 51°16.068 2°53.668 10.5 350 5.3 103240 42
2011-01-20 09:36:10 51°16.082 2°53.652 13 352 5.3 103240 42
2011-01-20 09:36:14 51°16.092 2°53.638 8.9 349 5.3 103240 42
2011-01-20 09:36:20 51°16.109 2°53.618 8.6 349 5.3 103240 42
2011-01-20 09:36:25 51°16.122 2°53.602 9.2 349 5.3 103240 42
2011-01-20 09:36:30 51°16.136 2°53.585 9.2 349 5.3 103240 42
2011-01-20 09:36:35 51°16.15 2°53.568 12.9 349 5.3 103240 42
2011-01-20 09:36:40 51°16.164 2°53.551 8.7 348 5.3 103240 42
2011-01-20 09:36:45 51°16.177 2°53.534 13 350 5.4 103250 42
2011-01-20 09:36:50 51°16.191 2°53.517 9.1 348 5.4 103250 42
2011-01-20 09:36:55 51°16.204 2°53.5 12.8 348 5.4 103250 40
2011-01-20 09:37:00 51°16.218 2°53.483 9.9 349 5.4 103250 40
2011-01-20 09:37:05 51°16.232 2°53.467 13.1 350 5.4 103250 43
2011-01-20 09:37:10 51°16.246 2°53.45 9.3 346 5.4 103250 43
2011-01-20 09:37:15 51°16.26 2°53.434 9.9 349 5.4 103250 42
2011-01-20 09:37:20 51°16.274 2°53.418 13.5 349 5.4 103250 42
2011-01-20 09:37:25 51°16.288 2°53.401 10.2 349 5.4 103240 43
2011-01-20 09:37:30 51°16.302 2°53.384 12.4 348 5.4 103240 43
2011-01-20 09:37:34 51°16.313 2°53.371 9.3 347 5.4 103250 42
2011-01-20 09:37:40 51°16.329 2°53.351 13.4 350 5.4 103250 42
2011-01-20 09:37:45 51°16.343 2°53.335 11.4 347 5.4 103240 42
2011-01-20 09:37:50 51°16.357 2°53.319 10.4 347 5.4 103240 42
2011-01-20 09:37:55 51°16.371 2°53.302 9.9 350 5.4 103250 42
2011-01-20 09:38:00 51°16.385 2°53.286 9.7 345 5.4 103250 42
2011-01-20 09:38:05 51°16.398 2°53.269 10.2 349 5.4 103240 43
2011-01-20 09:38:10 51°16.412 2°53.253 10.3 347 5.4 103240 43
2011-01-20 09:38:15 51°16.426 2°53.237 12.1 347 5.4 103240 42
2011-01-20 09:38:20 51°16.44 2°53.222 14.7 347 5.4 103240 42
2011-01-20 09:38:25 51°16.454 2°53.206 14 347 5.4 103240 42
2011-01-20 09:38:30 51°16.468 2°53.191 10.3 346 5.4 103240 42
2011-01-20 09:38:35 51°16.482 2°53.176 14.9 347 5.4 103250 42
2011-01-20 09:38:40 51°16.496 2°53.161 14.8 348 5.4 103250 42
2011-01-20 09:38:45 51°16.51 2°53.146 10.6 347 5.4 103240 42
2011-01-20 09:38:50 51°16.524 2°53.13 11.5 345 5.4 103240 42
2011-01-20 09:38:54 51°16.535 2°53.118 10.7 347 5.4 103240 42
2011-01-20 09:39:00 51°16.552 2°53.1 12.2 350 5.4 103240 42
2011-01-20 09:39:05 51°16.566 2°53.084 14.9 346 5.4 103240 42
2011-01-20 09:39:10 51°16.579 2°53.069 16 349 5.4 103240 42
2011-01-20 09:39:15 51°16.593 2°53.053 11.3 348 5.4 103240 42
2011-01-20 09:39:20 51°16.607 2°53.039 12.5 346 5.4 103240 42
2011-01-20 09:39:25 51°16.621 2°53.024 15.6 346 5.4 103230 42
2011-01-20 09:39:30 51°16.635 2°53.01 16.5 347 5.4 103230 42
2011-01-20 09:39:34 51°16.646 2°52.998 13.2 347 5.4 103240 41
2011-01-20 09:39:40 51°16.663 2°52.981 12.4 283 5.4 103240 41
2011-01-20 09:39:45 51°16.677 2°52.967 12.1 347 5.4 103240 42
2011-01-20 09:39:50 51°16.691 2°52.953 11.7 349 5.4 103240 42
2011-01-20 09:39:55 51°16.705 2°52.94 14.8 349 5.4 103250 41
2011-01-20 09:40:00 51°16.719 2°52.926 15.5 348 5.4 103250 41
2011-01-20 09:40:05 51°16.734 2°52.912 16.4 347 5.4 103220 42
2011-01-20 09:40:10 51°16.748 2°52.898 13.6 345 5.4 103220 42
2011-01-20 09:40:14 51°16.759 2°52.887 13.6 346 5.4 103240 42
2011-01-20 09:40:20 51°16.776 2°52.87 13.8 345 5.4 103240 42
2011-01-20 09:40:25 51°16.79 2°52.855 18.5 346 5.4 103230 41
2011-01-20 09:40:30 51°16.804 2°52.841 17.4 348 5.4 103230 41
2011-01-20 09:40:35 51°16.818 2°52.827 13.1 348 5.4 103230 41
2011-01-20 09:40:40 51°16.832 2°52.813 12.6 348 5.4 103230 41
2011-01-20 09:40:45 51°16.846 2°52.799 16.2 347 5.4 103230 41
2011-01-20 09:40:50 51°16.86 2°52.785 16 352 5.4 103230 41
2011-01-20 09:40:54 51°16.872 2°52.775 11.6 353 5.4 103220 40
2011-01-20 09:41:00 51°16.889 2°52.758 13 350 5.4 103220 40
2011-01-20 09:41:05 51°16.903 2°52.745 10.8 350 5.4 103230 41
2011-01-20 09:41:10 51°16.917 2°52.731 16.1 351 5.4 103230 41
2011-01-20 09:41:15 51°16.932 2°52.718 13.6 350 5.4 103220 41
2011-01-20 09:41:20 51°16.946 2°52.705 14.3 346 5.4 103220 41
2011-01-20 09:41:25 51°16.961 2°52.692 15.3 349 5.4 103230 41
2011-01-20 09:41:30 51°16.975 2°52.678 11 351 5.4 103230 41
2011-01-20 09:41:34 51°16.986 2°52.668 14.2 349 5.4 103240 41
2011-01-20 09:41:40 51°17.004 2°52.651 11 351 5.4 103240 41
2011-01-20 09:41:45 51°17.019 2°52.638 13.5 345 5.4 103240 42
2011-01-20 09:41:50 51°17.034 2°52.624 14.2 350 5.4 103240 42
2011-01-20 09:41:55 51°17.05 2°52.611 11.5 350 5.4 103230 41
2011-01-20 09:42:00 51°17.064 2°52.599 14.4 347 5.4 103230 41
2011-01-20 09:42:05 51°17.079 2°52.586 16.2 349 5.4 103240 41
2011-01-20 09:42:10 51°17.093 2°52.573 10.4 350 5.4 103240 41
2011-01-20 09:42:15 51°17.108 2°52.561 12.4 350 5.4 103240 40
2011-01-20 09:42:20 51°17.122 2°52.548 10.8 349 5.4 103240 40
2011-01-20 09:42:25 51°17.136 2°52.535 14.3 349 5.4 103250 41
2011-01-20 09:42:30 51°17.151 2°52.522 16.4 350 5.4 103250 41
2011-01-20 09:42:35 51°17.165 2°52.509 12 349 5.4 103250 41
2011-01-20 09:42:40 51°17.179 2°52.497 14.1 346 5.4 103250 41
2011-01-20 09:42:45 51°17.194 2°52.484 10.8 350 5.4 103240 41
2011-01-20 09:42:50 51°17.208 2°52.471 11.5 347 5.4 103240 41
2011-01-20 09:42:54 51°17.22 2°52.461 11.4 349 5.4 103240 41
2011-01-20 09:43:00 51°17.237 2°52.446 15.1 348 5.4 103240 41
2011-01-20 09:43:05 51°17.251 2°52.433 12 347 5.4 103250 43
2011-01-20 09:43:10 51°17.266 2°52.421 12.9 347 5.4 103250 43
2011-01-20 09:43:15 51°17.28 2°52.408 12.2 348 5.5 103240 43
2011-01-20 09:43:20 51°17.295 2°52.396 11.4 347 5.5 103240 43
2011-01-20 09:43:25 51°17.31 2°52.383 13.7 348 5.5 103240 43
2011-01-20 09:43:30 51°17.324 2°52.371 12.7 348 5.5 103240 43
2011-01-20 09:43:35 51°17.339 2°52.358 11 349 5.4 103240 42
2011-01-20 09:43:40 51°17.354 2°52.346 13.9 350 5.4 103240 42
2011-01-20 09:43:45 51°17.368 2°52.332 16 349 5.4 103240 42
2011-01-20 09:43:50 51°17.383 2°52.32 9.9 348 5.4 103240 42
2011-01-20 09:43:55 51°17.397 2°52.306 10.7 348 5.4 103250 43
2011-01-20 09:44:00 51°17.412 2°52.294 15.4 346 5.4 103250 43
2011-01-20 09:44:05 51°17.426 2°52.281 15 346 5.4 103240 42
2011-01-20 09:44:10 51°17.441 2°52.268 10.5 349 5.4 103240 42
2011-01-20 09:44:14 51°17.453 2°52.258 10.3 348 5.5 103250 43
2011-01-20 09:44:20 51°17.47 2°52.243 12.1 348 5.5 103250 43
2011-01-20 09:44:25 51°17.484 2°52.231 11.4 350 5.4 103240 43
2011-01-20 09:44:30 51°17.499 2°52.218 14.7 348 5.4 103240 43
2011-01-20 09:44:35 51°17.514 2°52.206 11.4 349 5.4 103240 42
2011-01-20 09:44:40 51°17.529 2°52.193 14.5 346 5.4 103240 42
2011-01-20 09:44:45 51°17.543 2°52.18 13.6 347 5.4 103250 42
2011-01-20 09:44:50 51°17.558 2°52.167 11.4 348 5.4 103250 42
2011-01-20 09:44:54 51°17.57 2°52.157 15.6 347 5.4 103240 41
2011-01-20 09:45:00 51°17.588 2°52.141 14.5 348 5.4 103240 41
2011-01-20 09:45:05 51°17.602 2°52.127 15.2 348 5.5 103250 43
2011-01-20 09:45:10 51°17.616 2°52.113 16.2 349 5.5 103250 43
2011-01-20 09:45:15 51°17.631 2°52.099 14.4 350 5.4 103240 43
2011-01-20 09:45:20 51°17.645 2°52.085 11.1 348 5.4 103240 43
2011-01-20 09:45:25 51°17.659 2°52.072 11.7 348 5.4 103240 43
2011-01-20 09:45:30 51°17.673 2°52.058 15.1 348 5.4 103240 43
2011-01-20 09:45:34 51°17.685 2°52.047 10.8 347 5.4 103250 42
2011-01-20 09:45:40 51°17.702 2°52.031 11.4 347 5.4 103250 42
2011-01-20 09:45:45 51°17.716 2°52.017 10.9 347 5.4 103240 42
2011-01-20 09:45:50 51°17.731 2°52.004 15.6 349 5.4 103240 42
2011-01-20 09:45:55 51°17.745 2°51.992 14.5 350 5.4 103240 43
2011-01-20 09:46:00 51°17.76 2°51.979 11.5 349 5.4 103240 43
2011-01-20 09:46:05 51°17.775 2°51.966 12.2 347 5.4 103250 43
2011-01-20 09:46:10 51°17.789 2°51.954 12.4 350 5.4 103250 43
2011-01-20 09:46:14 51°17.801 2°51.944 13.3 350 5.4 103250 42
2011-01-20 09:46:20 51°17.818 2°51.927 14.6 350 5.4 103250 42
2011-01-20 09:46:25 51°17.832 2°51.915 11.5 351 5.4 103250 42
2011-01-20 09:46:30 51°17.847 2°51.903 15.6 351 5.4 103250 42
2011-01-20 09:46:35 51°17.862 2°51.89 11 353 5.4 103240 42
2011-01-20 09:46:40 51°17.876 2°51.877 10.7 350 5.4 103240 42
2011-01-20 09:46:45 51°17.89 2°51.865 11.2 351 5.3 103240 41
2011-01-20 09:46:50 51°17.905 2°51.852 13.3 350 5.3 103240 41
2011-01-20 09:46:55 51°17.92 2°51.84 15 349 5.4 103240 41
2011-01-20 09:47:00 51°17.934 2°51.827 11.5 349 5.4 103240 41
2011-01-20 09:47:05 51°17.949 2°51.816 15.7 351 5.4 103230 40
2011-01-20 09:47:10 51°17.964 2°51.804 15.5 351 5.4 103230 40
2011-01-20 09:47:15 51°17.979 2°51.792 15 351 5.4 103250 41
2011-01-20 09:47:20 51°17.994 2°51.779 16 351 5.4 103250 41
2011-01-20 09:47:25 51°18.008 2°51.767 13.2 350 5.4 103240 41
2011-01-20 09:47:30 51°18.023 2°51.753 14.8 352 5.4 103240 41
2011-01-20 09:47:34 51°18.035 2°51.742 10.7 351 5.4 103230 39
2011-01-20 09:47:40 51°18.052 2°51.726 9.9 350 5.4 103230 39
2011-01-20 09:47:45 51°18.067 2°51.714 10.7 350 5.4 103240 40
2011-01-20 09:47:50 51°18.081 2°51.701 10.7 349 5.4 103240 40
2011-01-20 09:47:55 51°18.096 2°51.688 14.2 351 5.4 103250 40
2011-01-20 09:48:00 51°18.111 2°51.675 11.4 352 5.4 103250 40
2011-01-20 09:48:05 51°18.125 2°51.663 16.5 350 5.4 103250 40
2011-01-20 09:48:10 51°18.14 2°51.651 14.2 352 5.4 103250 40
2011-01-20 09:48:15 51°18.155 2°51.639 10.8 351 5.4 103250 41
2011-01-20 09:48:20 51°18.17 2°51.627 10 347 5.4 103250 41
2011-01-20 09:48:25 51°18.185 2°51.614 10.9 349 5.4 103240 41
2011-01-20 09:48:30 51°18.2 2°51.602 11 349 5.4 103240 41
2011-01-20 09:48:35 51°18.215 2°51.589 13.9 349 5.4 103240 40
2011-01-20 09:48:40 51°18.23 2°51.576 15 349 5.4 103240 40
2011-01-20 09:48:45 51°18.244 2°51.563 13.7 349 5.4 103240 39
2011-01-20 09:48:50 51°18.259 2°51.55 11 352 5.4 103240 39
2011-01-20 09:48:55 51°18.274 2°51.536 14.7 350 5.4 103240 39
2011-01-20 09:49:00 51°18.288 2°51.524 13.8 350 5.4 103240 39
2011-01-20 09:49:05 51°18.302 2°51.51 16.4 349 5.4 103240 39
2011-01-20 09:49:10 51°18.317 2°51.497 10.2 348 5.4 103240 39
2011-01-20 09:49:15 51°18.331 2°51.483 10.4 350 5.4 103250 39
2011-01-20 09:49:20 51°18.346 2°51.47 13.2 349 5.4 103250 39
2011-01-20 09:49:25 51°18.361 2°51.457 13.6 348 5.4 103240 39
2011-01-20 09:49:30 51°18.375 2°51.444 13.2 346 5.4 103240 39
2011-01-20 09:49:34 51°18.387 2°51.434 11.3 349 5.4 103240 40
2011-01-20 09:49:40 51°18.405 2°51.42 10.7 349 5.4 103240 40
2011-01-20 09:49:45 51°18.42 2°51.407 11.2 349 5.5 103250 40
2011-01-20 09:49:50 51°18.435 2°51.393 13.7 349 5.5 103250 40
2011-01-20 09:49:55 51°18.449 2°51.379 15.2 350 5.5 103240 41
2011-01-20 09:50:00 51°18.463 2°51.365 14.5 349 5.5 103240 41
2011-01-20 09:50:05 51°18.477 2°51.351 13.4 347 5.5 103250 40
2011-01-20 09:50:10 51°18.492 2°51.337 12.9 347 5.5 103250 40
2011-01-20 09:50:14 51°18.503 2°51.325 14.7 347 5.5 103250 40
2011-01-20 09:50:20 51°18.519 2°51.308 10.6 351 5.5 103250 40
2011-01-20 09:50:25 51°18.533 2°51.294 14.6 349 5.5 103240 40
2011-01-20 09:50:30 51°18.548 2°51.28 14.3 348 5.5 103240 40
2011-01-20 09:50:35 51°18.563 2°51.269 11 346 5.5 103260 41
2011-01-20 09:50:40 51°18.577 2°51.256 11.4 348 5.5 103260 41
2011-01-20 09:50:45 51°18.592 2°51.243 14.9 346 5.5 103250 40
2011-01-20 09:50:50 51°18.607 2°51.23 9.9 347 5.5 103250 40
2011-01-20 09:50:54 51°18.618 2°51.219 12.9 348 5.4 103240 40
2011-01-20 09:51:00 51°18.636 2°51.203 10 351 5.4 103240 40
2011-01-20 09:51:05 51°18.65 2°51.189 12 350 5.4 103240 40
2011-01-20 09:51:10 51°18.663 2°51.175 15.4 347 5.4 103240 40
2011-01-20 09:51:15 51°18.678 2°51.162 10.7 348 5.4 103260 40
2011-01-20 09:51:20 51°18.692 2°51.149 10.4 346 5.4 103260 40
2011-01-20 09:51:25 51°18.706 2°51.136 10.5 349 5.4 103260 40
2011-01-20 09:51:30 51°18.721 2°51.122 13.7 349 5.4 103260 40
2011-01-20 09:51:35 51°18.735 2°51.108 13.1 348 5.4 103250 41
2011-01-20 09:51:40 51°18.75 2°51.094 10 350 5.4 103250 41
2011-01-20 09:51:45 51°18.764 2°51.081 13.8 348 5.4 103260 40
2011-01-20 09:51:50 51°18.779 2°51.068 10.1 347 5.4 103260 40
2011-01-20 09:51:55 51°18.794 2°51.055 9.6 346 5.4 103260 40
2011-01-20 09:52:00 51°18.808 2°51.041 14.2 348 5.4 103260 40
2011-01-20 09:52:05 51°18.823 2°51.029 14.2 345 5.4 103250 41
2011-01-20 09:52:10 51°18.838 2°51.017 10.5 348 5.4 103250 41
2011-01-20 09:52:14 51°18.85 2°51.007 14 348 5.4 103260 41
2011-01-20 09:52:20 51°18.868 2°50.993 13.2 348 5.4 103260 41
2011-01-20 09:52:25 51°18.883 2°50.98 10.8 345 5.4 103260 41
2011-01-20 09:52:30 51°18.898 2°50.968 13.4 348 5.4 103260 41
2011-01-20 09:52:35 51°18.913 2°50.955 10.6 345 5.4 103250 40
2011-01-20 09:52:40 51°18.928 2°50.942 12.9 346 5.4 103250 40
2011-01-20 09:52:45 51°18.942 2°50.928 10.9 346 5.4 103250 40
2011-01-20 09:52:50 51°18.957 2°50.915 15 346 5.4 103250 40
2011-01-20 09:52:54 51°18.969 2°50.904 14 346 5.4 103260 39
2011-01-20 09:53:00 51°18.987 2°50.889 10.7 347 5.4 103260 39
2011-01-20 09:53:05 51°19.002 2°50.876 14.8 347 5.4 103260 41
2011-01-20 09:53:10 51°19.016 2°50.863 10.5 347 5.4 103260 41
2011-01-20 09:53:14 51°19.028 2°50.853 13.6 348 5.4 103260 40
2011-01-20 09:53:20 51°19.045 2°50.838 12.6 346 5.4 103260 40
2011-01-20 09:53:25 51°19.059 2°50.826 13.5 346 5.4 103260 41
2011-01-20 09:53:30 51°19.074 2°50.813 13.3 345 5.4 103260 41
2011-01-20 09:53:35 51°19.088 2°50.799 13.1 345 5.4 103260 41
2011-01-20 09:53:40 51°19.103 2°50.786 10.5 347 5.4 103260 41
2011-01-20 09:53:45 51°19.117 2°50.772 10.9 347 5.4 103260 40
2011-01-20 09:53:50 51°19.132 2°50.759 13 346 5.4 103260 40
2011-01-20 09:53:54 51°19.143 2°50.748 14.5 347 5.4 103260 40
2011-01-20 09:54:00 51°19.161 2°50.732 10.7 346 5.4 103260 40
2011-01-20 09:54:05 51°19.176 2°50.718 10.2 349 5.4 103250 41
2011-01-20 09:54:10 51°19.19 2°50.706 14.1 346 5.4 103250 41
2011-01-20 09:54:15 51°19.205 2°50.693 10.2 348 5.4 103250 40
2011-01-20 09:54:20 51°19.219 2°50.68 10.5 344 5.4 103250 40
2011-01-20 09:54:25 51°19.234 2°50.668 11.8 342 5.4 103260 40
2011-01-20 09:54:30 51°19.249 2°50.654 10.3 347 5.4 103260 40
2011-01-20 09:54:34 51°19.261 2°50.645 14 344 5.4 103260 41
2011-01-20 09:54:40 51°19.278 2°50.629 15.6 345 5.4 103260 41
2011-01-20 09:54:45 51°19.293 2°50.617 15.6 347 5.4 103260 40
2011-01-20 09:54:50 51°19.309 2°50.605 15.2 346 5.4 103260 40
2011-01-20 09:54:55 51°19.324 2°50.593 15.4 349 5.4 103260 41
2011-01-20 09:55:00 51°19.339 2°50.582 15.4 348 5.4 103260 41
2011-01-20 09:55:05 51°19.354 2°50.572 14.6 345 5.4 103260 40
2011-01-20 09:55:10 51°19.37 2°50.562 13.4 345 5.4 103260 40
2011-01-20 09:55:14 51°19.382 2°50.555 13.5 348 5.3 103250 39
2011-01-20 09:55:20 51°19.401 2°50.542 11.2 347 5.3 103250 39
2011-01-20 09:55:25 51°19.416 2°50.531 11 348 5.4 103240 39
2011-01-20 09:55:30 51°19.43 2°50.52 10.9 348 5.4 103240 39
2011-01-20 09:55:35 51°19.445 2°50.509 11.9 348 5.4 103260 39
2011-01-20 09:55:40 51°19.46 2°50.498 12.9 282 5.4 103260 39
2011-01-20 09:55:45 51°19.475 2°50.486 13.4 348 5.4 103250 39
2011-01-20 09:55:50 51°19.49 2°50.475 17.1 348 5.4 103250 39
2011-01-20 09:55:54 51°19.502 2°50.466 17.7 347 5.4 103260 38
2011-01-20 09:56:00 51°19.52 2°50.451 11.9 347 5.4 103260 38
2011-01-20 09:56:05 51°19.534 2°50.44 12.1 347 5.4 103250 38
2011-01-20 09:56:10 51°19.549 2°50.429 14.4 346 5.4 103250 38
2011-01-20 09:56:15 51°19.564 2°50.417 15.1 345 5.4 103250 38
2011-01-20 09:56:20 51°19.579 2°50.405 13.1 346 5.4 103250 38
2011-01-20 09:56:25 51°19.594 2°50.393 16.3 349 5.4 103240 38
2011-01-20 09:56:30 51°19.61 2°50.381 11.6 349 5.4 103240 38
2011-01-20 09:56:34 51°19.622 2°50.372 15.3 347 5.4 103250 38
2011-01-20 09:56:40 51°19.639 2°50.357 14.7 348 5.4 103250 38
2011-01-20 09:56:45 51°19.654 2°50.345 16.3 348 5.5 103260 39
2011-01-20 09:56:50 51°19.669 2°50.333 10.3 346 5.5 103260 39
2011-01-20 09:56:55 51°19.684 2°50.321 10.6 348 5.4 103250 37
2011-01-20 09:57:00 51°19.699 2°50.309 14.1 346 5.4 103250 37
2011-01-20 09:57:05 51°19.714 2°50.296 13.2 347 5.4 103270 37
2011-01-20 09:57:10 51°19.729 2°50.285 14.9 345 5.4 103270 37
2011-01-20 09:57:14 51°19.741 2°50.276 13.9 346 5.5 103250 38
2011-01-20 09:57:20 51°19.759 2°50.261 14.8 347 5.5 103250 38
2011-01-20 09:57:26 51°19.776 2°50.245 11 347 5.5 103260 39
2011-01-20 09:57:30 51°19.788 2°50.236 13.9 346 5.5 103260 39
2011-01-20 09:57:35 51°19.802 2°50.223 14.2 346 5.5 103260 39
2011-01-20 09:57:40 51°19.817 2°50.211 11.3 283 5.5 103260 39
2011-01-20 09:57:45 51°19.832 2°50.198 12.3 347 5.5 103250 39
2011-01-20 09:57:50 51°19.847 2°50.186 11 347 5.5 103250 39
2011-01-20 09:57:54 51°19.859 2°50.176 15.4 345 5.5 103260 39
2011-01-20 09:58:00 51°19.877 2°50.161 10.4 346 5.5 103260 39
2011-01-20 09:58:05 51°19.892 2°50.148 15.6 345 5.5 103270 39
2011-01-20 09:58:10 51°19.907 2°50.136 16.1 346 5.5 103270 39
2011-01-20 09:58:15 51°19.922 2°50.124 11 348 5.5 103270 37
2011-01-20 09:58:20 51°19.937 2°50.11 11.1 350 5.5 103270 37
2011-01-20 09:58:25 51°19.952 2°50.097 13.8 348 5.5 103260 39
2011-01-20 09:58:30 51°19.967 2°50.085 10.2 347 5.5 103260 39
2011-01-20 09:58:34 51°19.978 2°50.075 12.8 346 5.5 103250 39
2011-01-20 09:58:40 51°19.997 2°50.061 11.9 278 5.5 103250 39
2011-01-20 09:58:45 51°20.011 2°50.048 11.1 347 5.5 103270 39
2011-01-20 09:58:50 51°20.026 2°50.035 11.4 347 5.5 103270 39
2011-01-20 09:58:55 51°20.041 2°50.023 12.6 346 5.5 103260 39
2011-01-20 09:59:00 51°20.056 2°50.01 13.3 346 5.5 103260 39
2011-01-20 09:59:05 51°20.071 2°49.997 10.5 349 5.5 103260 38
2011-01-20 09:59:10 51°20.086 2°49.984 15.2 346 5.5 103260 38
2011-01-20 09:59:14 51°20.098 2°49.974 13.4 348 5.5 103260 39
2011-01-20 09:59:20 51°20.116 2°49.957 9.7 347 5.5 103260 39
2011-01-20 09:59:25 51°20.13 2°49.944 14.1 346 5.5 103250 38
2011-01-20 09:59:30 51°20.145 2°49.931 11 346 5.5 103250 38
2011-01-20 09:59:35 51°20.159 2°49.918 13.8 346 5.5 103260 38
2011-01-20 09:59:40 51°20.174 2°49.905 12.3 344 5.5 103260 38
2011-01-20 09:59:45 51°20.189 2°49.892 10.6 345 5.5 103260 39
2011-01-20 09:59:50 51°20.204 2°49.879 10.7 345 5.5 103260 39
2011-01-20 09:59:55 51°20.218 2°49.866 14.7 343 5.5 103260 38
2011-01-20 10:00:00 51°20.233 2°49.853 15.8 346 5.5 103260 38
2011-01-20 10:00:05 51°20.247 2°49.841 12.3 344 5.5 103260 38
2011-01-20 10:00:10 51°20.262 2°49.827 14.5 344 5.5 103260 38
2011-01-20 10:00:15 51°20.277 2°49.814 13.2 345 5.5 103270 39
2011-01-20 10:00:20 51°20.292 2°49.8 14.1 346 5.5 103270 39
2011-01-20 10:00:25 51°20.307 2°49.787 11.6 346 5.5 103260 38
2011-01-20 10:00:30 51°20.321 2°49.774 15.3 347 5.5 103260 38
2011-01-20 10:00:34 51°20.333 2°49.763 11.3 346 5.5 103250 38
2011-01-20 10:00:40 51°20.35 2°49.747 11.1 283 5.5 103250 38
2011-01-20 10:00:45 51°20.365 2°49.733 11.4 346 5.5 103260 38
2011-01-20 10:00:50 51°20.38 2°49.72 11.1 343 5.5 103260 38
2011-01-20 10:00:55 51°20.395 2°49.708 11.1 344 5.5 103250 37
2011-01-20 10:01:00 51°20.41 2°49.696 11.2 344 5.5 103250 37
2011-01-20 10:01:05 51°20.426 2°49.683 12.4 344 5.5 103260 39
2011-01-20 10:01:10 51°20.44 2°49.672 15.1 345 5.5 103260 39
2011-01-20 10:01:14 51°20.452 2°49.663 14.7 346 5.5 103270 39
2011-01-20 10:01:20 51°20.47 2°49.649 13.6 347 5.5 103270 39
2011-01-20 10:01:25 51°20.485 2°49.637 11.5 346 5.5 103270 38
2011-01-20 10:01:30 51°20.5 2°49.623 14.8 343 5.5 103270 38
2011-01-20 10:01:35 51°20.515 2°49.611 15 344 5.5 103270 38
2011-01-20 10:01:40 51°20.53 2°49.598 14.3 344 5.5 103270 38
2011-01-20 10:01:45 51°20.545 2°49.586 10.8 343 5.5 103260 38
2011-01-20 10:01:50 51°20.56 2°49.574 13.4 343 5.5 103260 38
2011-01-20 10:01:55 51°20.575 2°49.563 14.3 344 5.5 103260 38
2011-01-20 10:02:00 51°20.591 2°49.55 14.7 345 5.5 103260 38
2011-01-20 10:02:05 51°20.606 2°49.538 12.3 345 5.5 103270 38
2011-01-20 10:02:10 51°20.621 2°49.526 12.4 343 5.5 103270 38
2011-01-20 10:02:15 51°20.636 2°49.514 15 341 5.5 103270 39
2011-01-20 10:02:20 51°20.652 2°49.502 14.2 342 5.5 103270 39
2011-01-20 10:02:25 51°20.667 2°49.49 11.7 344 5.5 103270 38
2011-01-20 10:02:30 51°20.682 2°49.477 11.7 344 5.5 103270 38
2011-01-20 10:02:35 51°20.698 2°49.464 14 343 5.5 103260 39
2011-01-20 10:02:40 51°20.713 2°49.452 14.4 282 5.5 103260 39
2011-01-20 10:02:45 51°20.728 2°49.441 13.9 340 5.5 103260 38
2011-01-20 10:02:50 51°20.744 2°49.429 10.8 344 5.5 103260 38
2011-01-20 10:02:55 51°20.759 2°49.419 14.4 343 5.5 103260 38
2011-01-20 10:03:00 51°20.774 2°49.408 11.1 343 5.5 103260 38
2011-01-20 10:03:05 51°20.789 2°49.397 10.4 344 5.5 103270 38
2011-01-20 10:03:10 51°20.804 2°49.385 11.6 343 5.5 103270 38
2011-01-20 10:03:15 51°20.82 2°49.373 11.2 343 5.5 103270 39
2011-01-20 10:03:20 51°20.835 2°49.36 11.9 344 5.5 103270 39
2011-01-20 10:03:25 51°20.85 2°49.348 13.9 345 5.5 103270 39
2011-01-20 10:03:30 51°20.865 2°49.335 9.9 342 5.5 103270 39
2011-01-20 10:03:35 51°20.879 2°49.324 10.6 343 5.5 103270 38
2011-01-20 10:03:40 51°20.895 2°49.313 11 342 5.5 103270 38
2011-01-20 10:03:45 51°20.91 2°49.302 10 343 5.5 103270 39
2011-01-20 10:03:50 51°20.925 2°49.292 10.3 342 5.5 103270 39
2011-01-20 10:03:55 51°20.94 2°49.281 11.5 344 5.6 103270 39
2011-01-20 10:04:00 51°20.955 2°49.27 12.2 344 5.6 103270 39
2011-01-20 10:04:05 51°20.971 2°49.259 11.1 346 5.5 103280 39
2011-01-20 10:04:10 51°20.985 2°49.248 11.1 345 5.5 103280 39
2011-01-20 10:04:14 51°20.997 2°49.238 10.6 347 5.6 103270 39
2011-01-20 10:04:20 51°21.015 2°49.224 13.7 343 5.6 103270 39
2011-01-20 10:04:25 51°21.029 2°49.212 14.4 346 5.5 103270 39
2011-01-20 10:04:30 51°21.044 2°49.201 13.9 342 5.5 103270 39
2011-01-20 10:04:35 51°21.059 2°49.189 10.7 345 5.5 103270 38
2011-01-20 10:04:40 51°21.074 2°49.177 11.7 281 5.5 103270 38
2011-01-20 10:04:45 51°21.089 2°49.166 11.3 344 5.5 103260 39
2011-01-20 10:04:50 51°21.104 2°49.154 11.4 346 5.5 103260 39
2011-01-20 10:04:54 51°21.115 2°49.144 12.8 345 5.6 103260 40
2011-01-20 10:05:00 51°21.133 2°49.13 15.4 347 5.6 103260 40
2011-01-20 10:05:05 51°21.148 2°49.119 10.4 345 5.6 103270 40
2011-01-20 10:05:10 51°21.163 2°49.108 15.6 347 5.6 103270 40
2011-01-20 10:05:15 51°21.178 2°49.096 12 347 5.5 103270 39
2011-01-20 10:05:20 51°21.193 2°49.084 11 345 5.5 103270 39
2011-01-20 10:05:25 51°21.208 2°49.072 14.5 345 5.5 103260 38
2011-01-20 10:05:30 51°21.223 2°49.06 14.9 345 5.5 103260 38
2011-01-20 10:05:34 51°21.235 2°49.051 11.6 343 5.5 103270 39
2011-01-20 10:05:40 51°21.253 2°49.038 12.3 344 5.5 103270 39
2011-01-20 10:05:45 51°21.268 2°49.027 15 345 5.5 103270 38
2011-01-20 10:05:50 51°21.284 2°49.015 12.3 345 5.5 103270 38
2011-01-20 10:05:55 51°21.299 2°49.003 17.4 344 5.5 103270 39
2011-01-20 10:06:00 51°21.314 2°48.99 7.4 345 5.5 103270 39
2011-01-20 10:06:05 51°21.329 2°48.979 13.1 345 5.5 103270 38
2011-01-20 10:06:10 51°21.344 2°48.966 15.5 346 5.5 103270 38
2011-01-20 10:06:14 51°21.356 2°48.956 14.5 346 5.5 103260 37
2011-01-20 10:06:20 51°21.373 2°48.941 12.9 346 5.5 103260 37
2011-01-20 10:06:25 51°21.388 2°48.928 13.8 346 5.5 103260 38
2011-01-20 10:06:30 51°21.403 2°48.916 16.4 344 5.5 103260 38
2011-01-20 10:06:35 51°21.417 2°48.904 12.2 342 5.5 103250 39
2011-01-20 10:06:40 51°21.432 2°48.891 13.8 285 5.5 103250 39
2011-01-20 10:06:45 51°21.447 2°48.88 16.7 343 5.5 103270 39
2011-01-20 10:06:50 51°21.462 2°48.868 15.1 345 5.5 103270 39
2011-01-20 10:06:55 51°21.477 2°48.856 15.2 343 5.5 103260 39
2011-01-20 10:07:00 51°21.492 2°48.844 14.8 342 5.5 103260 39
2011-01-20 10:07:05 51°21.508 2°48.832 12.1 344 5.5 103280 39
2011-01-20 10:07:10 51°21.523 2°48.821 15.3 343 5.5 103280 39
2011-01-20 10:07:15 51°21.538 2°48.809 13.3 344 5.5 103270 39
2011-01-20 10:07:20 51°21.554 2°48.798 13.4 344 5.5 103270 39
2011-01-20 10:07:25 51°21.569 2°48.786 11.5 345 5.5 103270 39
2011-01-20 10:07:30 51°21.585 2°48.776 14.9 345 5.5 103270 39
2011-01-20 10:07:34 51°21.597 2°48.766 7.3 343 5.5 103270 39
2011-01-20 10:07:40 51°21.615 2°48.752 13.7 346 5.5 103270 39
2011-01-20 10:07:45 51°21.63 2°48.741 14.9 347 5.5 103260 39
2011-01-20 10:07:50 51°21.645 2°48.728 12.6 344 5.5 103260 39
2011-01-20 10:07:55 51°21.659 2°48.716 17.1 346 5.5 103260 39
2011-01-20 10:08:00 51°21.674 2°48.705 12.3 346 5.5 103260 39
2011-01-20 10:08:05 51°21.689 2°48.693 15.9 346 5.5 103270 38
2011-01-20 10:08:10 51°21.704 2°48.681 11.8 346 5.5 103270 38
2011-01-20 10:08:14 51°21.716 2°48.672 12.2 345 5.5 103240 39
2011-01-20 10:08:20 51°21.734 2°48.659 12.3 346 5.5 103240 39
2011-01-20 10:08:25 51°21.75 2°48.648 11.6 345 5.5 103260 39
2011-01-20 10:08:30 51°21.765 2°48.638 14.7 345 5.5 103260 39
2011-01-20 10:08:35 51°21.781 2°48.627 11.7 347 5.5 103270 39
2011-01-20 10:08:40 51°21.796 2°48.616 16.7 282 5.5 103270 39
2011-01-20 10:08:45 51°21.811 2°48.606 17.9 346 5.5 103260 38
2011-01-20 10:08:50 51°21.827 2°48.595 15.6 345 5.5 103260 38
2011-01-20 10:08:55 51°21.842 2°48.584 15.3 346 5.5 103260 38
2011-01-20 10:09:00 51°21.858 2°48.573 15.2 344 5.5 103260 38
2011-01-20 10:09:05 51°21.873 2°48.562 11.6 345 5.5 103260 38
2011-01-20 10:09:10 51°21.888 2°48.551 15.2 345 5.5 103260 38
2011-01-20 10:09:15 51°21.903 2°48.54 13.7 346 5.5 103270 39
2011-01-20 10:09:20 51°21.918 2°48.528 16 347 5.5 103270 39
2011-01-20 10:09:25 51°21.934 2°48.517 16.4 348 5.5 103260 40
2011-01-20 10:09:30 51°21.949 2°48.505 12.2 345 5.5 103260 40
2011-01-20 10:09:35 51°21.964 2°48.494 11.6 345 5.5 103260 39
2011-01-20 10:09:40 51°21.98 2°48.483 13.9 348 5.5 103260 39
2011-01-20 10:09:45 51°21.995 2°48.471 15.8 345 5.5 103260 39
2011-01-20 10:09:50 51°22.011 2°48.46 14.8 345 5.5 103260 39
2011-01-20 10:09:55 51°22.026 2°48.448 19.4 346 5.5 103260 40
2011-01-20 10:10:00 51°22.041 2°48.436 15.9 347 5.5 103260 40
2011-01-20 10:10:05 51°22.056 2°48.424 14.5 348 5.5 103260 39
2011-01-20 10:10:10 51°22.071 2°48.413 15.6 346 5.5 103260 39
2011-01-20 10:10:15 51°22.086 2°48.401 11.7 345 5.5 103260 39
2011-01-20 10:10:20 51°22.102 2°48.389 15.9 346 5.5 103260 39
2011-01-20 10:10:25 51°22.117 2°48.378 11.8 344 5.5 103260 39
2011-01-20 10:10:30 51°22.132 2°48.366 13.6 348 5.5 103260 39
2011-01-20 10:10:34 51°22.144 2°48.357 13.3 348 5.5 103260 39
2011-01-20 10:10:40 51°22.162 2°48.343 11.1 346 5.5 103260 39
2011-01-20 10:10:45 51°22.177 2°48.332 14.2 348 5.5 103260 39
2011-01-20 10:10:50 51°22.192 2°48.32 11.6 347 5.5 103260 39
2011-01-20 10:10:55 51°22.207 2°48.309 14.8 345 5.5 103260 38
2011-01-20 10:11:00 51°22.222 2°48.298 12 347 5.5 103260 38
2011-01-20 10:11:05 51°22.237 2°48.286 14.9 343 5.5 103250 39
2011-01-20 10:11:10 51°22.252 2°48.275 13.7 346 5.5 103250 39
2011-01-20 10:11:14 51°22.264 2°48.266 10.5 346 5.5 103260 39
2011-01-20 10:11:20 51°22.283 2°48.252 12.1 346 5.5 103260 39
2011-01-20 10:11:25 51°22.298 2°48.24 10.5 346 5.5 103280 39
2011-01-20 10:11:30 51°22.312 2°48.227 16.5 346 5.5 103280 39
2011-01-20 10:11:35 51°22.327 2°48.215 11.8 345 5.5 103270 39
2011-01-20 10:11:40 51°22.342 2°48.203 10.8 350 5.5 103270 39
2011-01-20 10:11:45 51°22.356 2°48.191 12.2 351 5.5 103260 40
2011-01-20 10:11:50 51°22.371 2°48.179 14.5 345 5.5 103260 40
2011-01-20 10:11:54 51°22.383 2°48.17 10.6 345 5.5 103260 39
2011-01-20 10:12:00 51°22.4 2°48.155 15.7 346 5.5 103260 39
2011-01-20 10:12:05 51°22.415 2°48.144 14.7 348 5.4 103260 38
2011-01-20 10:12:10 51°22.43 2°48.132 12.5 346 5.4 103260 38
2011-01-20 10:12:15 51°22.444 2°48.12 10.9 343 5.5 103270 39
2011-01-20 10:12:20 51°22.459 2°48.11 12.8 344 5.5 103270 39
2011-01-20 10:12:25 51°22.474 2°48.099 12.3 345 5.5 103280 39
2011-01-20 10:12:30 51°22.489 2°48.088 11.9 343 5.5 103280 39
2011-01-20 10:12:35 51°22.503 2°48.077 16.8 345 5.5 103270 40
2011-01-20 10:12:40 51°22.518 2°48.065 15.3 346 5.5 103270 40
2011-01-20 10:12:45 51°22.532 2°48.054 12 345 5.5 103280 39
2011-01-20 10:12:50 51°22.547 2°48.042 11.5 343 5.5 103280 39
2011-01-20 10:12:55 51°22.561 2°48.031 15 347 5.4 103260 39
2011-01-20 10:13:00 51°22.576 2°48.02 10.7 345 5.4 103260 39
2011-01-20 10:13:05 51°22.591 2°48.007 11 345 5.4 103270 39
2011-01-20 10:13:10 51°22.605 2°47.996 12.4 344 5.4 103270 39
2011-01-20 10:13:15 51°22.619 2°47.984 15.2 346 5.4 103270 39
2011-01-20 10:13:20 51°22.634 2°47.972 6.4 345 5.4 103270 39
2011-01-20 10:13:25 51°22.649 2°47.961 13.6 345 5.4 103270 38
2011-01-20 10:13:30 51°22.663 2°47.949 11.6 346 5.4 103270 38
2011-01-20 10:13:34 51°22.675 2°47.94 12.8 345 5.4 103270 38
2011-01-20 10:13:40 51°22.692 2°47.926 15.3 284 5.4 103270 38
2011-01-20 10:13:45 51°22.707 2°47.915 14.5 346 5.4 103270 39
2011-01-20 10:13:50 51°22.722 2°47.903 16 345 5.4 103270 39
2011-01-20 10:13:55 51°22.736 2°47.891 13.5 346 5.4 103270 39
2011-01-20 10:14:00 51°22.75 2°47.878 10.9 346 5.4 103270 39
2011-01-20 10:14:05 51°22.764 2°47.866 11.1 346 5.5 103260 38
2011-01-20 10:14:10 51°22.778 2°47.855 11.7 345 5.5 103260 38
2011-01-20 10:14:14 51°22.79 2°47.846 11.4 346 5.5 103290 37
2011-01-20 10:14:20 51°22.808 2°47.833 11.9 345 5.5 103290 37
2011-01-20 10:14:25 51°22.823 2°47.822 10.6 345 5.5 103270 39
2011-01-20 10:14:30 51°22.837 2°47.81 14.8 342 5.5 103270 39
2011-01-20 10:14:35 51°22.852 2°47.797 17.1 346 5.5 103280 39
2011-01-20 10:14:40 51°22.866 2°47.785 11.5 348 5.5 103280 39
2011-01-20 10:14:45 51°22.881 2°47.773 11.4 346 5.5 103270 39
2011-01-20 10:14:50 51°22.896 2°47.761 15.1 343 5.5 103270 39
2011-01-20 10:14:54 51°22.908 2°47.752 13.2 346 5.5 103270 39
2011-01-20 10:15:00 51°22.926 2°47.739 11.4 346 5.5 103270 39
2011-01-20 10:15:05 51°22.942 2°47.728 15.4 347 5.5 103270 39
2011-01-20 10:15:10 51°22.957 2°47.716 10.9 346 5.5 103270 39
2011-01-20 10:15:15 51°22.972 2°47.705 11 347 5.5 103270 38
2011-01-20 10:15:20 51°22.987 2°47.693 7.1 346 5.5 103270 38
2011-01-20 10:15:25 51°23.003 2°47.682 11.6 345 5.5 103270 39
2011-01-20 10:15:30 51°23.018 2°47.669 12.5 347 5.5 103270 39
2011-01-20 10:15:35 51°23.033 2°47.658 15.4 348 5.5 103270 39
2011-01-20 10:15:40 51°23.048 2°47.646 12.2 346 5.5 103270 39
2011-01-20 10:15:45 51°23.064 2°47.635 12.9 349 5.5 103270 38
2011-01-20 10:15:50 51°23.079 2°47.622 15 348 5.5 103270 38
2011-01-20 10:15:55 51°23.094 2°47.611 10.3 345 5.4 103260 38
2011-01-20 10:16:00 51°23.109 2°47.599 16.1 347 5.4 103260 38
2011-01-20 10:16:05 51°23.125 2°47.588 12.2 346 5.4 103260 38
2011-01-20 10:16:10 51°23.14 2°47.576 13.3 349 5.4 103260 38
2011-01-20 10:16:14 51°23.152 2°47.567 11.7 347 5.5 103260 39
2011-01-20 10:16:20 51°23.17 2°47.553 11.5 347 5.5 103260 39
2011-01-20 10:16:25 51°23.186 2°47.543 13.4 348 5.5 103280 39
2011-01-20 10:16:30 51°23.201 2°47.531 13.2 347 5.5 103280 39
2011-01-20 10:16:35 51°23.216 2°47.52 11.8 348 5.5 103270 39
2011-01-20 10:16:40 51°23.231 2°47.508 17 346 5.5 103270 39
2011-01-20 10:16:45 51°23.247 2°47.497 12.8 347 5.5 103260 39
2011-01-20 10:16:50 51°23.262 2°47.485 13.5 348 5.5 103260 39
2011-01-20 10:16:54 51°23.274 2°47.476 14.1 347 5.5 103270 38
2011-01-20 10:17:00 51°23.292 2°47.462 11.3 347 5.5 103270 38
2011-01-20 10:17:05 51°23.308 2°47.452 15.2 349 5.5 103260 38
2011-01-20 10:17:10 51°23.323 2°47.441 11.6 347 5.5 103260 38
2011-01-20 10:17:15 51°23.338 2°47.429 15.8 347 5.5 103270 38
2011-01-20 10:17:20 51°23.354 2°47.418 13.7 345 5.5 103270 38
2011-01-20 10:17:25 51°23.369 2°47.407 11.2 346 5.5 103270 39
2011-01-20 10:17:30 51°23.384 2°47.396 11.2 347 5.5 103270 39
2011-01-20 10:17:35 51°23.4 2°47.385 12.3 347 5.5 103260 38
2011-01-20 10:17:40 51°23.415 2°47.373 11.4 282 5.5 103260 38
2011-01-20 10:17:45 51°23.43 2°47.361 14.9 345 5.5 103270 38
2011-01-20 10:17:50 51°23.445 2°47.35 15.3 346 5.5 103270 38
2011-01-20 10:17:55 51°23.46 2°47.338 15.3 346 5.5 103280 39
2011-01-20 10:18:00 51°23.474 2°47.326 13 347 5.5 103280 39
2011-01-20 10:18:05 51°23.49 2°47.314 10.4 348 5.5 103260 38
2011-01-20 10:18:10 51°23.504 2°47.303 11.7 346 5.5 103260 38
2011-01-20 10:18:15 51°23.519 2°47.291 10.7 350 5.5 103260 38
2011-01-20 10:18:20 51°23.534 2°47.28 10.8 349 5.5 103260 38
2011-01-20 10:18:25 51°23.548 2°47.268 6.1 346 5.5 103280 39
2011-01-20 10:18:30 51°23.564 2°47.257 14.8 347 5.5 103280 39
2011-01-20 10:18:34 51°23.576 2°47.248 12 349 5.5 103260 38
2011-01-20 10:18:40 51°23.594 2°47.234 11 347 5.5 103260 38
2011-01-20 10:18:45 51°23.609 2°47.222 12.3 348 5.5 103270 38
2011-01-20 10:18:50 51°23.625 2°47.211 14.5 349 5.5 103270 38
2011-01-20 10:18:55 51°23.64 2°47.199 12.7 348 5.5 103260 38
2011-01-20 10:19:00 51°23.656 2°47.188 14.8 347 5.5 103260 38
2011-01-20 10:19:05 51°23.672 2°47.177 13.1 346 5.5 103260 39
2011-01-20 10:19:10 51°23.687 2°47.166 11.1 348 5.5 103260 39
2011-01-20 10:19:14 51°23.699 2°47.156 15 347 5.5 103270 39
2011-01-20 10:19:20 51°23.717 2°47.143 10.9 348 5.5 103270 39
2011-01-20 10:19:25 51°23.733 2°47.132 16.1 346 5.5 103270 38
2011-01-20 10:19:30 51°23.747 2°47.12 12.2 347 5.5 103270 38
2011-01-20 10:19:35 51°23.763 2°47.109 6.7 348 5.5 103270 37
2011-01-20 10:19:40 51°23.778 2°47.097 13.8 348 5.5 103270 37
2011-01-20 10:19:45 51°23.793 2°47.086 10.2 347 5.4 103260 38
2011-01-20 10:19:50 51°23.809 2°47.075 14 345 5.4 103260 38
2011-01-20 10:19:55 51°23.824 2°47.063 11.6 347 5.5 103260 38
2011-01-20 10:20:00 51°23.839 2°47.051 11.3 349 5.5 103260 38
2011-01-20 10:20:05 51°23.854 2°47.039 14.2 349 5.5 103270 38
2011-01-20 10:20:10 51°23.869 2°47.027 15.6 347 5.5 103270 38
2011-01-20 10:20:15 51°23.884 2°47.016 10.8 348 5.5 103260 37
2011-01-20 10:20:20 51°23.899 2°47.004 12 346 5.5 103260 37
2011-01-20 10:20:25 51°23.915 2°46.993 15.1 347 5.5 103280 38
2011-01-20 10:20:30 51°23.93 2°46.981 11.1 346 5.5 103280 38
2011-01-20 10:20:35 51°23.946 2°46.97 10.4 346 5.5 103260 37
2011-01-20 10:20:40 51°23.96 2°46.958 16.8 350 5.5 103260 37
2011-01-20 10:20:45 51°23.975 2°46.946 14.4 347 5.5 103260 39
2011-01-20 10:20:50 51°23.99 2°46.935 11.5 348 5.5 103260 39
2011-01-20 10:20:55 51°24.006 2°46.923 15.4 348 5.5 103260 39
2011-01-20 10:21:00 51°24.02 2°46.911 12 349 5.5 103260 39
2011-01-20 10:21:05 51°24.036 2°46.899 14.8 345 5.5 103260 39
2011-01-20 10:21:10 51°24.051 2°46.887 14.3 350 5.5 103260 39
2011-01-20 10:21:15 51°24.066 2°46.875 15.6 347 5.5 103270 38
2011-01-20 10:21:20 51°24.081 2°46.863 13.3 349 5.5 103270 38
2011-01-20 10:21:25 51°24.096 2°46.849 15.8 348 5.5 103270 38
2011-01-20 10:21:30 51°24.111 2°46.837 13.2 346 5.5 103270 38
2011-01-20 10:21:35 51°24.126 2°46.825 13.3 346 5.5 103270 38
2011-01-20 10:21:40 51°24.141 2°46.813 11.1 348 5.5 103270 38
2011-01-20 10:21:45 51°24.156 2°46.8 11.8 347 5.5 103270 39
2011-01-20 10:21:50 51°24.17 2°46.788 15.1 349 5.5 103270 39
2011-01-20 10:21:55 51°24.185 2°46.776 10.9 349 5.5 103260 38
2011-01-20 10:22:00 51°24.2 2°46.763 13.8 347 5.5 103260 38
2011-01-20 10:22:05 51°24.215 2°46.751 13.1 346 5.5 103270 39
2011-01-20 10:22:10 51°24.23 2°46.739 9.5 344 5.5 103270 39
2011-01-20 10:22:15 51°24.245 2°46.727 9.6 346 5.5 103270 38
2011-01-20 10:22:20 51°24.26 2°46.715 14 346 5.5 103270 38
2011-01-20 10:22:25 51°24.275 2°46.703 14.2 346 5.5 103280 39
2011-01-20 10:22:30 51°24.291 2°46.691 13 348 5.5 103280 39
2011-01-20 10:22:35 51°24.306 2°46.68 9.7 347 5.5 103270 40
2011-01-20 10:22:41 51°24.323 2°46.667 11.5 348 5.5 103270 40
2011-01-20 10:22:46 51°24.338 2°46.656 12.1 347 5.5 103270 39
2011-01-20 10:22:50 51°24.35 2°46.647 15.3 349 5.5 103270 39
2011-01-20 10:22:55 51°24.365 2°46.637 15.7 348 5.5 103270 39
2011-01-20 10:23:00 51°24.38 2°46.626 15.4 348 5.5 103270 39
2011-01-20 10:23:05 51°24.395 2°46.615 11.6 347 5.5 103270 38
2011-01-20 10:23:10 51°24.41 2°46.604 11.4 346 5.5 103270 38
2011-01-20 10:23:15 51°24.425 2°46.593 12.7 349 5.5 103290 39
2011-01-20 10:23:20 51°24.44 2°46.581 15 347 5.5 103290 39
2011-01-20 10:23:25 51°24.456 2°46.57 14.1 346 5.5 103280 38
2011-01-20 10:23:30 51°24.471 2°46.558 14.5 347 5.5 103280 38
2011-01-20 10:23:35 51°24.486 2°46.547 10 347 5.5 103260 38
2011-01-20 10:23:40 51°24.501 2°46.535 10.8 348 5.5 103260 38
2011-01-20 10:23:45 51°24.516 2°46.523 14.7 347 5.5 103260 39
2011-01-20 10:23:50 51°24.532 2°46.512 16.2 347 5.5 103260 39
2011-01-20 10:23:55 51°24.547 2°46.5 14.2 347 5.5 103280 39
2011-01-20 10:24:00 51°24.562 2°46.489 10.9 347 5.5 103280 39
2011-01-20 10:24:05 51°24.577 2°46.478 17.8 346 5.5 103280 37
2011-01-20 10:24:10 51°24.593 2°46.467 13.3 346 5.5 103280 37
2011-01-20 10:24:15 51°24.609 2°46.456 10 347 5.5 103260 38
2011-01-20 10:24:20 51°24.624 2°46.444 15.7 349 5.5 103260 38
2011-01-20 10:24:25 51°24.639 2°46.433 10.8 348 5.5 103280 39
2011-01-20 10:24:30 51°24.654 2°46.421 15.2 346 5.5 103280 39
2011-01-20 10:24:35 51°24.669 2°46.409 17.7 349 5.5 103280 38
2011-01-20 10:24:40 51°24.684 2°46.399 12.2 280 5.5 103280 38
2011-01-20 10:24:45 51°24.7 2°46.387 12.8 347 5.5 103270 38
2011-01-20 10:24:50 51°24.715 2°46.376 14.5 344 5.5 103270 38
2011-01-20 10:24:55 51°24.73 2°46.364 11.6 346 5.5 103280 38
2011-01-20 10:25:00 51°24.745 2°46.353 11.6 349 5.5 103280 38
2011-01-20 10:25:05 51°24.76 2°46.341 12 348 5.5 103280 38
2011-01-20 10:25:10 51°24.775 2°46.33 13.5 346 5.5 103280 38
2011-01-20 10:25:14 51°24.787 2°46.321 13.6 349 5.5 103270 39
2011-01-20 10:25:20 51°24.805 2°46.308 16.6 347 5.5 103270 39
2011-01-20 10:25:25 51°24.821 2°46.296 12 349 5.5 103260 39
2011-01-20 10:25:30 51°24.836 2°46.285 11.9 347 5.5 103260 39
2011-01-20 10:25:35 51°24.851 2°46.274 12.3 349 5.5 103260 38
2011-01-20 10:25:40 51°24.866 2°46.263 16.2 350 5.5 103260 38
2011-01-20 10:25:45 51°24.881 2°46.251 14.9 350 5.5 103270 38
2011-01-20 10:25:50 51°24.897 2°46.241 13.8 347 5.5 103270 38
2011-01-20 10:25:54 51°24.909 2°46.231 16.5 348 5.5 103270 38
2011-01-20 10:26:00 51°24.927 2°46.218 6.6 346 5.5 103270 38
2011-01-20 10:26:05 51°24.942 2°46.207 11.2 346 5.5 103270 38
2011-01-20 10:26:10 51°24.957 2°46.196 10.9 348 5.5 103270 38
2011-01-20 10:26:15 51°24.973 2°46.185 11.3 348 5.5 103270 39
2011-01-20 10:26:20 51°24.988 2°46.174 12.3 348 5.5 103270 39
2011-01-20 10:26:25 51°25.003 2°46.162 12.9 347 5.5 103260 39
2011-01-20 10:26:30 51°25.017 2°46.151 6.2 349 5.5 103260 39
2011-01-20 10:26:34 51°25.029 2°46.141 16.1 352 5.5 103280 39
2011-01-20 10:26:40 51°25.047 2°46.127 14.4 350 5.5 103280 39
2011-01-20 10:26:45 51°25.062 2°46.117 10 345 5.5 103280 40
2011-01-20 10:26:50 51°25.078 2°46.106 13.1 348 5.5 103280 40
2011-01-20 10:26:55 51°25.093 2°46.097 11.4 348 5.5 103280 39
2011-01-20 10:27:00 51°25.109 2°46.089 13.7 345 5.5 103280 39
2011-01-20 10:27:05 51°25.125 2°46.081 17.8 345 5.5 103270 40
2011-01-20 10:27:10 51°25.141 2°46.073 11 343 5.5 103270 40
2011-01-20 10:27:14 51°25.153 2°46.068 15.9 344 5.5 103280 39
2011-01-20 10:27:20 51°25.172 2°46.06 12.2 348 5.5 103280 39
2011-01-20 10:27:25 51°25.188 2°46.054 15.4 344 5.5 103270 39
2011-01-20 10:27:30 51°25.204 2°46.048 13.1 343 5.5 103270 39
2011-01-20 10:27:35 51°25.22 2°46.041 16.7 343 5.5 103270 39
2011-01-20 10:27:40 51°25.236 2°46.035 11.5 344 5.5 103270 39
2011-01-20 10:27:45 51°25.252 2°46.029 17.6 345 5.5 103280 40
2011-01-20 10:27:50 51°25.268 2°46.022 19.5 344 5.5 103280 40
2011-01-20 10:27:54 51°25.281 2°46.017 13.4 344 5.5 103270 40
2011-01-20 10:28:00 51°25.301 2°46.01 17.3 344 5.5 103270 40
2011-01-20 10:28:05 51°25.317 2°46.003 18.9 345 5.5 103270 40
2011-01-20 10:28:10 51°25.333 2°45.998 12.4 342 5.5 103270 40
2011-01-20 10:28:15 51°25.349 2°45.991 17.1 346 5.5 103260 40
2011-01-20 10:28:20 51°25.366 2°45.986 15.4 344 5.5 103260 40
2011-01-20 10:28:25 51°25.382 2°45.98 17.7 344 5.5 103270 40
2011-01-20 10:28:30 51°25.398 2°45.974 21.3 345 5.5 103270 40
2011-01-20 10:28:35 51°25.413 2°45.968 18.4 346 5.5 103250 40
2011-01-20 10:28:40 51°25.429 2°45.962 16.2 346 5.5 103250 40
2011-01-20 10:28:45 51°25.444 2°45.957 11.9 345 5.5 103280 40
2011-01-20 10:28:50 51°25.461 2°45.952 16.4 342 5.5 103280 40
2011-01-20 10:28:55 51°25.476 2°45.948 16.5 341 5.5 103260 40
2011-01-20 10:29:00 51°25.493 2°45.946 13.9 344 5.5 103260 40
2011-01-20 10:29:05 51°25.509 2°45.948 7.5 340 5.5 103260 40
2011-01-20 10:29:10 51°25.525 2°45.949 16.7 339 5.5 103260 40
2011-01-20 10:29:15 51°25.541 2°45.952 15.7 337 5.5 103270 40
2011-01-20 10:29:20 51°25.556 2°45.955 12.5 340 5.5 103270 40
2011-01-20 10:29:25 51°25.572 2°45.96 14.9 339 5.4 103280 40
2011-01-20 10:29:30 51°25.588 2°45.965 14.4 337 5.4 103280 40
2011-01-20 10:29:34 51°25.599 2°45.972 16.6 336 5.5 103280 40
2011-01-20 10:29:40 51°25.617 2°45.983 13.5 332 5.5 103280 40
2011-01-20 10:29:45 51°25.632 2°45.994 14.9 333 5.5 103300 41
2011-01-20 10:29:50 51°25.645 2°46.008 14.9 328 5.5 103300 41
2011-01-20 10:29:55 51°25.657 2°46.024 14.9 330 5.4 103290 41
2011-01-20 10:30:00 51°25.668 2°46.043 14.7 328 5.4 103290 41
2011-01-20 10:30:05 51°25.679 2°46.061 16.7 328 5.4 103280 41
2011-01-20 10:30:10 51°25.689 2°46.082 13 325 5.4 103280 41
2011-01-20 10:30:14 51°25.697 2°46.098 16.6 324 5.4 103290 40
2011-01-20 10:30:20 51°25.708 2°46.122 16.1 304 5.4 103290 40
2011-01-20 10:30:25 51°25.717 2°46.143 15.3 323 5.4 103290 40
2011-01-20 10:30:30 51°25.726 2°46.165 13.9 307 5.4 103290 40
2011-01-20 10:30:35 51°25.735 2°46.187 15.1 325 5.4 103280 41
2011-01-20 10:30:40 51°25.744 2°46.209 15.6 284 5.4 103280 41
2011-01-20 10:30:45 51°25.752 2°46.232 7.4 325 5.4 103280 40
2011-01-20 10:30:50 51°25.761 2°46.254 15.7 323 5.4 103280 40
2011-01-20 10:30:54 51°25.768 2°46.273 8.4 324 5.4 103280 41
2011-01-20 10:31:00 51°25.779 2°46.301 15.7 324 5.4 103280 41
2011-01-20 10:31:05 51°25.787 2°46.323 16.8 322 5.4 103280 41
2011-01-20 10:31:10 51°25.796 2°46.346 14.2 324 5.4 103280 41
2011-01-20 10:31:15 51°25.805 2°46.369 21.2 323 5.4 103280 40
2011-01-20 10:31:20 51°25.813 2°46.391 12.1 306 5.4 103280 40
2011-01-20 10:31:25 51°25.822 2°46.414 14.9 322 5.4 103280 40
2011-01-20 10:31:30 51°25.831 2°46.436 17.4 324 5.4 103280 40
2011-01-20 10:31:35 51°25.84 2°46.458 12.8 324 5.4 103280 40
2011-01-20 10:31:40 51°25.849 2°46.48 18.5 324 5.4 103280 40
2011-01-20 10:31:45 51°25.858 2°46.502 17.1 323 5.3 103280 40
2011-01-20 10:31:50 51°25.868 2°46.525 14.7 308 5.3 103280 40
2011-01-20 10:31:54 51°25.875 2°46.543 15.4 321 5.3 103290 40
2011-01-20 10:32:00 51°25.885 2°46.57 14.2 304 5.3 103290 40
2011-01-20 10:32:05 51°25.895 2°46.593 16.4 319 5.3 103290 40
2011-01-20 10:32:10 51°25.903 2°46.616 15.3 305 5.3 103290 40
2011-01-20 10:32:14 51°25.91 2°46.634 11.8 321 5.3 103280 40
2011-01-20 10:32:20 51°25.921 2°46.662 12.8 307 5.3 103280 40
2011-01-20 10:32:25 51°25.93 2°46.685 14.2 322 5.3 103280 41
2011-01-20 10:32:30 51°25.938 2°46.708 14.1 305 5.3 103280 41
2011-01-20 10:32:35 51°25.947 2°46.73 13.2 322 5.3 103280 40
2011-01-20 10:32:40 51°25.956 2°46.753 15.7 282 5.3 103280 40
2011-01-20 10:32:45 51°25.965 2°46.775 10.9 320 5.3 103290 41
2011-01-20 10:32:50 51°25.974 2°46.797 14.7 306 5.3 103290 41
2011-01-20 10:32:54 51°25.981 2°46.815 14.7 318 5.3 103280 39
2011-01-20 10:33:00 51°25.991 2°46.843 11.4 305 5.3 103280 39
2011-01-20 10:33:05 51°26 2°46.866 11.3 318 5.3 103280 41
2011-01-20 10:33:10 51°26.009 2°46.888 12.5 302 5.3 103280 41
2011-01-20 10:33:15 51°26.018 2°46.91 13.3 317 5.3 103280 40
2011-01-20 10:33:20 51°26.027 2°46.933 13.3 308 5.3 103280 40
2011-01-20 10:33:25 51°26.036 2°46.955 12 319 5.3 103280 41
2011-01-20 10:33:30 51°26.044 2°46.978 16.6 310 5.3 103280 41
2011-01-20 10:33:34 51°26.052 2°46.996 16 317 5.3 103280 40
2011-01-20 10:33:40 51°26.062 2°47.024 13.9 305 5.3 103280 40
2011-01-20 10:33:45 51°26.071 2°47.047 11.6 319 5.3 103290 41
2011-01-20 10:33:50 51°26.079 2°47.07 13.8 306 5.3 103290 41
2011-01-20 10:33:55 51°26.088 2°47.092 12.7 320 5.3 103290 41
2011-01-20 10:34:00 51°26.097 2°47.115 10.2 310 5.3 103290 41
2011-01-20 10:34:05 51°26.105 2°47.138 9.7 321 5.4 103270 41
2011-01-20 10:34:10 51°26.113 2°47.16 16.3 321 5.4 103270 41
2011-01-20 10:34:14 51°26.119 2°47.179 6.4 322 5.4 103290 41
2011-01-20 10:34:20 51°26.129 2°47.206 12.5 306 5.4 103290 41
2011-01-20 10:34:25 51°26.137 2°47.229 12 322 5.3 103280 42
2011-01-20 10:34:30 51°26.145 2°47.252 13.3 303 5.3 103280 42
2011-01-20 10:34:35 51°26.153 2°47.275 11.3 320 5.3 103290 41
2011-01-20 10:34:40 51°26.161 2°47.298 16.7 283 5.3 103290 41
2011-01-20 10:34:45 51°26.17 2°47.321 11.9 321 5.3 103290 41
2011-01-20 10:34:50 51°26.178 2°47.344 12.9 303 5.3 103290 41
2011-01-20 10:34:54 51°26.185 2°47.362 12.3 323 5.4 103290 41
2011-01-20 10:35:00 51°26.195 2°47.39 13.3 303 5.4 103290 41
2011-01-20 10:35:05 51°26.204 2°47.412 12.6 322 5.3 103280 41
2011-01-20 10:35:10 51°26.213 2°47.435 12.7 322 5.3 103280 41
2011-01-20 10:35:15 51°26.222 2°47.458 11.3 320 5.4 103280 41
2011-01-20 10:35:20 51°26.231 2°47.48 12.3 307 5.4 103280 41
2011-01-20 10:35:25 51°26.24 2°47.503 13.7 321 5.4 103290 41
2011-01-20 10:35:30 51°26.249 2°47.526 10.5 306 5.4 103290 41
2011-01-20 10:35:35 51°26.257 2°47.549 10.1 323 5.4 103280 41
2011-01-20 10:35:40 51°26.266 2°47.572 16.8 322 5.4 103280 41
2011-01-20 10:35:45 51°26.274 2°47.595 11.4 322 5.4 103280 42
2011-01-20 10:35:50 51°26.283 2°47.618 10.6 307 5.4 103280 42
2011-01-20 10:35:55 51°26.292 2°47.642 10.6 321 5.4 103290 41
2011-01-20 10:36:00 51°26.3 2°47.665 16.1 305 5.4 103290 41
2011-01-20 10:36:05 51°26.309 2°47.688 15.3 319 5.4 103290 42
2011-01-20 10:36:10 51°26.318 2°47.711 9.9 324 5.4 103290 42
2011-01-20 10:36:14 51°26.324 2°47.729 14.5 322 5.4 103290 41
2011-01-20 10:36:20 51°26.335 2°47.756 16.3 307 5.4 103290 41
2011-01-20 10:36:25 51°26.342 2°47.779 14.6 320 5.3 103290 42
2011-01-20 10:36:30 51°26.351 2°47.801 14 305 5.3 103290 42
2011-01-20 10:36:35 51°26.359 2°47.824 10.4 322 5.4 103270 41
2011-01-20 10:36:40 51°26.368 2°47.846 10.9 288 5.4 103270 41
2011-01-20 10:36:45 51°26.377 2°47.869 12.6 321 5.4 103300 42
2011-01-20 10:36:50 51°26.385 2°47.892 12 320 5.4 103300 42
2011-01-20 10:36:54 51°26.392 2°47.91 11.6 321 5.4 103290 42
2011-01-20 10:37:00 51°26.403 2°47.937 12.5 321 5.4 103290 42
2011-01-20 10:37:05 51°26.412 2°47.96 14.2 319 5.4 103280 41
2011-01-20 10:37:10 51°26.42 2°47.983 10.9 306 5.4 103280 41
2011-01-20 10:37:15 51°26.43 2°48.005 11.8 322 5.4 103300 42
2011-01-20 10:37:20 51°26.438 2°48.028 10.7 302 5.4 103300 42
2011-01-20 10:37:25 51°26.447 2°48.052 13.6 320 5.4 103290 42
2011-01-20 10:37:30 51°26.454 2°48.074 12.5 307 5.4 103290 42
2011-01-20 10:37:34 51°26.461 2°48.092 13.5 322 5.4 103300 42
2011-01-20 10:37:40 51°26.471 2°48.12 13.7 304 5.4 103300 42
2011-01-20 10:37:45 51°26.479 2°48.141 14.3 323 5.4 103290 42
2011-01-20 10:37:50 51°26.488 2°48.164 10.8 308 5.4 103290 42
2011-01-20 10:37:55 51°26.496 2°48.187 11.9 321 5.4 103290 42
2011-01-20 10:38:00 51°26.504 2°48.21 9.6 302 5.4 103290 42
2011-01-20 10:38:05 51°26.513 2°48.233 10.8 320 5.4 103270 42
2011-01-20 10:38:10 51°26.521 2°48.256 10.6 306 5.4 103270 42
2011-01-20 10:38:14 51°26.528 2°48.274 14.5 323 5.4 103290 41
2011-01-20 10:38:20 51°26.538 2°48.302 10.2 304 5.4 103290 41
2011-01-20 10:38:25 51°26.546 2°48.324 14.7 322 5.4 103300 42
2011-01-20 10:38:30 51°26.554 2°48.347 9.4 305 5.4 103300 42
2011-01-20 10:38:35 51°26.563 2°48.369 10.9 320 5.3 103280 42
2011-01-20 10:38:40 51°26.571 2°48.393 9.8 284 5.3 103280 42
2011-01-20 10:38:45 51°26.579 2°48.415 12.5 320 5.3 103290 41
2011-01-20 10:38:50 51°26.587 2°48.438 14.5 304 5.3 103290 41
2011-01-20 10:38:54 51°26.594 2°48.456 10.6 321 5.3 103290 42
2011-01-20 10:39:00 51°26.604 2°48.484 12.2 306 5.3 103290 42
2011-01-20 10:39:05 51°26.613 2°48.506 10.2 320 5.3 103280 41
2011-01-20 10:39:10 51°26.622 2°48.529 12.4 308 5.3 103280 41
2011-01-20 10:39:15 51°26.631 2°48.551 14.4 319 5.3 103290 41
2011-01-20 10:39:20 51°26.64 2°48.573 10.4 307 5.3 103290 41
2011-01-20 10:39:25 51°26.649 2°48.596 9.2 322 5.3 103290 41
2011-01-20 10:39:30 51°26.658 2°48.618 10 306 5.3 103290 41
2011-01-20 10:39:34 51°26.665 2°48.636 13.3 320 5.3 103280 41